Starlink 3146

operational
NORAD ID: 49414 Int'l Des: 2021-104 Owner: SPXS Country: US Constellation: starlink
LEOCIRCULAR

About Starlink 3146

Description loading...

Live Position

Loading 3D Globe...

Upcoming Passes

Altitude History

Altitude vs Time

uPlot chart will show altitude changes over time

Two-Line Element Set

1 49414U 21104G 25257.38454171 -.00000993 00000-0 -44317-4 0 9990
2 49414 53.2181 300.5885 0001428 82.8928 277.2227 15.08837858212013
Epoch: Sep 14, 2025 • Age: 24 hours

Current Status

Altitude 549.5 km
Velocity 7.59 km/s
Sub-Earth Point -30.00°S, 142.57°E
Launch Date Nov 13, 2021
Age 3.8 years
Type internet

Technical Details

Classification Payload
Mass 290.00 kg
Dry Mass 270.00 kg
Total Mass 290.00 kg
Length 0.20 m
Diameter 2.80 m
Span 9.00 m
Shape Box + pan
Manufacturer SPXS
Bus Type Starlink
Phase Status In Orbit
Owner/State SPXS/US

Large Constellations

Loading constellations...